This is the latest recevied weather packets stored in our database for station/object N9EA. If no packets are shown the sender has not sent any weather packets the latest 10 day(s).
| Time | Temp. | Humidity | Pressure | Rain* | Wind** | Luminosity | Snow |
|---|---|---|---|---|---|---|---|
| 1777635797 | 4.44° C | 69% | 1016 hPa | 0 mm | - | 28 W/m² | - |
| 1777635494 | 4.44° C | 71% | 1016.1 hPa | 0 mm | - | 22 W/m² | - |
| 1777635190 | 3.89° C | 71% | 1015.9 hPa | 0 mm | - | 19 W/m² | - |
| 1777634887 | 3.89° C | 72% | 1016 hPa | 0 mm | - | 15 W/m² | - |
| 1777634584 | 3.33° C | 72% | 1015.8 hPa | 0 mm | - | 13 W/m² | - |
| 1777634281 | 3.33° C | 71% | 1016.1 hPa | 0 mm | - | 12 W/m² | - |
| 1777633977 | 3.33° C | 70% | 1015.7 hPa | 0 mm | - | 9 W/m² | - |
| 1777633674 | 3.89° C | 69% | 1015.5 hPa | 0 mm | - | 6 W/m² | - |
| 1777633373 | 3.33° C | 69% | 1015.6 hPa | 0 mm | - | 4 W/m² | - |
| 1777633070 | 3.33° C | 70% | 1015.5 hPa | 0 mm | - | 2 W/m² | - |
| 1777632766 | 3.33° C | 71% | 1015.8 hPa | 0 mm | - | 1 W/m² | - |
| 1777632462 | 3.33° C | 70% | 1015.9 hPa | 0 mm | - | 1 W/m² | - |
| 1777632159 | 3.33° C | 70% | 1015.6 hPa | 0 mm | - | 0 W/m² | - |
| 1777631856 | 3.33° C | 70% | 1015.9 hPa | 0 mm | - | 0 W/m² | - |
| 1777631555 | 3.33° C | 70% | 1015.9 hPa | 0 mm | - | 0 W/m² | - |
| 1777631252 | 3.33° C | 71% | 1015.8 hPa | 0 mm | - | 0 W/m² | - |
| 1777630949 | 3.89° C | 71% | 1015.8 hPa | 0 mm | - | 0 W/m² | - |
| 1777630644 | 3.89° C | 72% | 1015.8 hPa | 0 mm | - | 0 W/m² | - |
| 1777630342 | 3.89° C | 71% | 1015.8 hPa | 0 mm | - | 0 W/m² | - |
| 1777630039 | 3.89° C | 71% | 1015.9 hPa | 0 mm | - | 0 W/m² | - |
| 1777629736 | 3.89° C | 71% | 1015.7 hPa | 0 mm | - | 0 W/m² | - |
| 1777629433 | 3.89° C | 72% | 1015.9 hPa | 0 mm | - | 0 W/m² | - |
| 1777629129 | 3.89° C | 73% | 1015.6 hPa | 0 mm | - | 0 W/m² | - |
| 1777628825 | 3.89° C | 74% | 1015.7 hPa | 0 mm | - | 0 W/m² | - |
| 1777628522 | 3.89° C | 74% | 1016 hPa | 0 mm | - | 0 W/m² | - |
* Rain latest hour (hover to see other rain measurements)
** Current wind speed in m/s (hover to see current wind gust speed)